GFSSGP_925_rhum_150.txt.gz
RH
17 12 20 24 26 32 29 15 13 14 12 12 15 22 26 24 32 49 29 55 58 57 55 54 51 54 53 47 47 50 50 52 55 61 59 57 55 55 60 59 64 65 72 76 75 74 72 71 66
14 20 23 27 34 34 25 14 14 13 13 13 18 20 21 25 28 33 38 56 60 63 58 54 57 57 55 49 47 50 51 54 56 62 64 62 59 59 60 62 65 72 74 77 72 74 73 71 70
17 26 28 34 38 30 18 12 12 13 14 13 13 17 20 20 16 21 47 55 63 66 65 63 57 57 56 52 50 52 52 54 56 60 65 66 64 62 61 62 65 71 80 79 74 74 72 72 71
24 26 28 29 30 22 16 12 12 16 15 15 18 22 15 13 14 29 49 63 65 69 66 62 61 56 55 53 52 54 54 55 56 61 66 69 70 66 63 62 66 70 78 75 75 76 76 72 72
26 31 34 35 30 23 17 14 14 17 18 19 16 15 12 9 14 42 47 54 66 71 70 71 69 62 59 57 55 56 55 57 58 60 66 73 75 71 66 64 67 70 72 74 76 78 76 73 74
30 29 32 32 23 22 19 18 17 16 14 16 13 14 11 8 11 46 53 66 61 65 73 76 77 73 66 65 65 64 62 59 58 63 73 78 79 74 69 68 67 70 70 72 75 77 76 74 76
26 34 34 28 25 22 18 14 15 12 11 10 13 14 9 8 9 9 20 55 64 82 77 76 77 73 70 65 65 68 69 66 63 64 70 80 80 76 72 71 71 71 70 70 73 75 77 75 78
26 30 28 25 24 16 9 9 9 8 8 7 12 18 9 7 7 9 10 12 13 26 37 86 82 74 72 63 62 63 66 70 69 68 71 75 79 77 74 74 74 74 74 73 73 73 75 77 78
16 27 31 23 18 11 7 6 6 5 10 11 10 10 8 7 9 10 12 13 28 34 40 34 43 84 92 86 77 73 67 65 69 72 78 82 77 74 77 77 76 77 75 74 74 73 72 76 77
20 28 22 16 13 8 6 6 6 5 6 12 11 9 7 10 12 16 22 43 49 49 44 44 41 38 37 46 75 90 88 76 68 62 67 78 83 77 72 76 78 79 77 77 76 76 75 75 77
14 22 18 11 7 5 6 6 6 6 10 11 10 8 9 15 26 45 49 52 51 52 40 37 36 33 33 36 40 39 49 81 92 75 67 66 80 87 84 76 77 80 82 80 78 81 80 75 76
12 11 11 12 9 6 7 6 7 6 9 11 10 8 11 44 48 48 50 50 47 41 39 34 33 30 29 31 32 30 32 39 47 69 90 71 68 80 86 84 80 79 82 81 77 77 76 74 76
11 9 9 9 8 7 8 8 8 7 9 9 9 13 43 47 47 47 48 51 51 48 45 38 32 30 34 32 30 30 30 33 34 36 50 94 76 72 79 86 88 83 80 79 76 75 75 74 76
10 8 8 8 7 7 8 8 8 7 8 8 12 46 45 46 46 47 50 53 54 53 51 48 46 43 38 35 37 35 35 40 38 35 37 47 92 76 72 78 86 84 81 76 75 76 73 72 73
11 10 10 9 7 7 7 8 8 8 8 9 28 42 44 44 46 48 51 56 55 55 52 48 49 45 47 50 46 44 44 42 42 42 41 38 58 92 79 74 81 82 75 71 74 74 78 78 75
14 14 14 10 9 9 7 10 8 10 8 10 40 44 46 46 48 49 51 51 52 51 50 49 50 52 53 52 56 63 59 56 51 46 49 49 51 56 86 80 74 79 81 77 73 70 78 80 76
16 20 14 13 10 10 9 10 8 8 8 23 46 48 47 50 49 50 50 50 50 50 52 54 59 64 66 63 67 71 72 72 72 66 57 61 56 58 77 87 87 74 78 79 78 76 71 77 78
20 16 13 14 10 10 10 9 8 8 10 48 55 54 50 52 52 49 49 49 50 54 58 61 66 70 72 72 74 76 81 81 81 81 76 64 62 52 63 78 86 88 79 83 81 79 75 78 74
17 16 16 9 9 10 13 10 9 10 45 60 57 54 53 54 49 48 48 52 54 56 60 62 70 71 75 76 78 81 83 83 83 84 85 82 73 73 59 65 85 83 92 84 78 80 82 89 78
20 20 14 10 8 9 10 10 10 10 44 55 55 56 57 56 54 51 50 52 56 60 66 66 73 75 82 80 82 86 87 86 86 86 87 88 87 87 84 60 71 84 86 81 82 85 89 88 78
14 14 12 12 10 9 9 14 10 53 50 46 51 53 54 58 60 57 54 57 60 65 63 71 74 78 83 82 86 88 87 85 85 86 87 88 91 92 86 82 79 79 84 86 84 83 78 84 93
19 13 13 12 14 17 12 19 16 56 55 52 55 59 59 60 59 58 57 59 63 66 62 72 78 82 85 88 91 92 90 87 87 89 91 92 92 94 94 90 79 67 85 81 87 82 76 77 87
17 17 17 16 18 17 14 18 23 57 62 60 59 57 59 61 60 61 59 62 66 63 70 74 81 85 88 90 93 94 90 89 91 93 94 94 94 92 96 92 90 71 82 85 80 87 82 81 80
17 15 18 20 21 27 20 18 26 30 57 58 57 57 58 59 58 58 62 67 71 66 72 74 82 88 90 92 96 96 92 93 93 94 95 96 93 95 94 93 91 82 66 87 79 88 85 80 76
17 21 29 33 32 28 23 20 14 52 51 55 61 62 57 58 62 66 71 78 68 69 69 76 83 89 90 93 98 98 97 96 95 96 97 97 96 96 94 95 94 85 65 82 81 85 97 90 84
20 22 48 39 50 44 28 34 50 51 51 54 56 59 57 62 63 70 76 76 70 71 72 76 84 88 88 90 95 99 99 99 97 98 98 98 99 99 98 100 98 85 61 81 78 85 58 92 87
26 28 27 42 44 52 39 58 53 52 56 58 61 62 62 64 66 72 76 69 68 68 71 77 86 87 84 86 93 97 99 98 100 100 100 100 99 100 100 100 98 82 58 76 75 78 73 93 96
26 27 42 52 48 47 34 52 59 64 64 62 66 64 65 63 69 74 77 69 69 69 72 75 79 84 82 87 92 93 100 99 100 100 100 100 100 100 100 97 82 63 52 75 76 77 77 77 95
27 40 38 45 53 57 52 42 51 59 61 68 65 61 65 64 72 73 72 64 69 68 69 71 74 80 82 85 91 92 96 99 99 100 100 100 100 100 100 96 67 50 53 67 79 78 67 86 96
21 28 41 71 46 55 59 57 58 66 66 68 65 60 61 59 66 70 68 63 71 69 68 70 72 78 80 85 88 92 94 95 97 100 100 100 100 100 100 100 97 86 86 71 82 86 79 93 94

GFSSGP_925_rhum_153.txt.gz
RH
17 16 21 24 23 30 26 16 14 14 13 17 23 27 29 32 37 51 32 48 63 61 61 63 61 57 53 55 57 54 53 56 57 59 58 59 59 59 58 60 63 68 70 75 76 70 71 66 62
16 24 23 30 32 29 22 17 15 15 15 24 19 22 24 22 29 37 42 70 72 66 63 62 61 58 56 56 59 59 58 60 61 63 64 64 63 63 61 60 63 72 72 72 78 72 66 66 62
24 28 29 38 40 30 22 13 13 14 16 15 18 16 18 20 17 30 64 77 74 68 65 64 64 62 57 56 57 58 58 61 61 63 68 69 67 67 65 62 64 71 74 72 72 76 73 68 68
25 26 32 35 29 23 19 13 13 16 17 18 16 16 13 11 15 40 72 73 72 69 65 63 61 63 63 59 58 58 58 58 58 61 68 73 74 72 70 66 66 71 72 71 71 72 74 74 72
24 32 38 37 30 25 22 16 14 19 20 19 13 12 10 10 37 64 76 79 72 75 76 77 76 71 65 63 61 62 64 66 64 62 66 74 78 77 74 69 67 69 73 71 69 71 74 76 76
30 32 37 34 28 22 20 18 14 14 14 12 13 12 10 14 35 63 80 94 93 93 96 95 93 85 76 67 66 66 66 70 74 77 78 79 81 79 75 71 69 70 71 72 70 71 73 75 79
30 36 38 30 28 20 15 13 13 11 11 11 13 11 9 12 20 23 34 42 39 55 84 95 100 100 98 94 84 73 67 64 65 71 80 86 88 85 78 73 72 72 72 73 71 73 72 73 78
32 33 28 27 26 12 9 8 8 8 8 9 12 13 9 9 21 31 32 35 35 37 40 38 38 50 70 87 98 99 97 89 76 63 62 73 88 90 85 78 74 74 72 72 72 73 74 73 80
20 30 33 24 19 11 7 6 6 7 11 11 10 10 10 15 30 33 41 39 37 35 35 33 31 30 30 36 55 57 80 99 100 99 88 73 69 86 91 86 80 76 74 73 72 74 73 74 81
21 31 26 20 14 7 6 6 6 7 10 11 10 12 30 42 46 53 56 57 49 41 41 34 30 29 28 27 27 27 30 56 70 72 96 99 86 76 84 92 88 82 79 75 73 75 75 75 80
17 21 20 12 9 6 6 6 6 8 10 11 10 25 48 50 52 53 55 56 55 52 41 35 33 29 27 27 27 27 27 26 26 32 45 47 91 92 86 85 92 93 88 84 79 79 78 75 78
13 12 16 13 11 6 6 6 6 6 9 11 16 47 48 51 52 53 55 56 51 44 42 39 32 31 31 29 28 29 30 30 27 26 25 33 57 97 91 82 82 92 94 90 85 83 78 75 75
12 9 9 10 9 7 8 7 7 8 10 36 45 48 52 52 52 54 54 52 50 45 43 41 37 33 33 32 33 32 34 35 34 31 30 31 33 52 88 98 78 78 90 93 90 85 79 76 72
9 11 8 9 8 8 9 9 9 9 21 47 48 53 52 50 52 55 56 56 52 52 50 48 47 43 41 38 38 38 39 40 38 39 40 39 43 48 86 90 98 80 75 86 88 85 80 76 74
13 14 13 10 9 8 9 8 10 8 34 48 48 49 50 50 53 57 59 58 54 53 49 44 48 48 47 47 46 46 47 48 45 44 44 49 54 59 55 64 95 99 84 74 84 86 85 88 81
15 15 17 11 10 8 7 11 8 11 46 53 50 50 54 54 56 55 56 56 56 54 48 41 45 48 51 55 54 52 53 59 61 59 56 54 59 63 58 54 77 96 99 89 75 78 83 90 88
20 20 16 14 10 10 9 10 8 14 45 51 54 56 55 57 56 56 57 58 57 51 41 36 47 54 58 58 61 64 66 68 70 72 75 73 70 70 77 65 50 82 100 100 88 76 75 86 88
23 19 15 15 11 11 11 10 8 15 45 56 59 58 58 58 56 57 59 58 56 49 41 46 60 65 68 71 72 73 76 79 81 80 82 83 83 78 84 87 74 51 76 100 100 92 80 85 76
18 19 20 16 10 11 13 11 9 43 61 65 63 62 62 61 54 57 58 59 56 46 46 62 68 67 73 78 80 79 80 80 80 83 84 85 86 86 88 96 97 89 61 94 97 100 96 94 84
21 23 24 18 10 11 12 12 13 43 61 60 61 65 63 60 57 57 60 62 60 54 54 59 69 71 78 83 85 90 92 87 88 86 86 88 89 89 91 94 99 88 97 71 94 95 97 96 98
25 23 18 12 11 10 10 13 11 58 56 55 58 59 59 63 62 60 63 68 57 54 56 56 69 74 79 82 87 91 91 88 86 86 89 91 93 93 91 96 99 100 94 92 78 98 100 94 100
30 19 15 13 15 18 13 22 15 61 62 59 60 63 64 64 62 64 69 70 62 58 56 57 62 77 84 86 92 96 94 91 90 90 90 90 94 95 96 94 98 100 100 96 86 89 96 90 92
25 17 17 16 19 17 16 18 18 62 69 67 65 63 65 64 67 72 74 67 60 59 60 61 69 77 84 88 91 94 95 95 94 92 92 93 94 96 97 95 94 97 100 100 92 83 93 96 84
19 16 24 26 22 25 20 17 25 78 63 62 62 62 63 64 68 71 71 59 59 58 60 68 79 79 82 84 84 87 92 95 94 94 95 95 95 96 98 98 94 95 98 100 99 86 96 90 97
16 20 31 28 28 30 21 21 17 53 53 54 62 66 65 66 73 78 80 71 65 65 66 75 78 81 78 81 80 87 94 95 96 97 95 97 96 97 98 100 100 99 98 98 99 92 88 91 87
22 24 48 43 42 37 29 30 32 58 61 59 60 65 66 68 74 78 76 71 69 66 70 71 75 76 74 80 82 90 94 95 96 98 98 99 100 99 100 100 100 100 100 99 99 96 84 95 93
24 26 26 44 45 52 38 58 57 59 65 64 68 66 70 68 75 76 71 69 71 68 67 70 73 72 74 83 86 94 96 95 95 98 99 100 100 100 100 100 100 100 100 100 99 97 86 90 95
24 26 37 49 40 38 32 50 58 71 70 66 71 70 71 68 74 74 72 71 72 64 64 67 70 72 78 82 89 93 92 93 96 98 98 99 100 100 100 100 100 100 100 100 100 96 94 81 93
31 45 39 43 50 52 54 41 52 58 61 69 71 68 71 70 75 74 70 70 66 64 66 68 71 74 78 84 89 91 92 92 95 98 99 100 100 100 100 100 100 100 100 100 98 98 94 92 88
21 35 46 68 51 58 66 39 63 57 64 69 68 68 66 71 73 72 68 72 67 67 66 69 73 77 79 86 87 86 89 92 94 96 98 100 100 100 100 100 100 100 100 100 100 100 94 90 89

GFSSGP_925_rhum_156.txt.gz
RH
17 22 23 23 22 26 26 18 15 15 27 26 27 29 35 37 36 47 37 75 77 73 70 66 64 64 62 61 62 63 64 64 64 61 62 64 65 66 64 64 63 66 69 71 74 74 73 71 67
23 26 22 32 28 25 22 18 17 16 25 23 19 23 23 22 28 42 57 83 71 66 65 65 64 64 63 60 60 65 70 70 70 67 66 68 69 70 69 69 68 71 72 71 72 67 64 65 68
25 27 30 37 39 28 25 15 14 18 21 17 16 16 16 17 19 40 89 80 73 72 72 69 68 65 64 66 65 67 71 74 73 74 74 73 73 73 72 73 73 74 75 71 68 68 69 66 68
26 27 34 34 28 24 20 16 14 20 19 16 15 16 12 15 19 90 94 90 79 84 84 86 86 83 79 75 71 68 68 70 74 80 82 80 78 77 76 74 74 75 73 71 66 69 69 70 72
23 32 38 37 31 27 24 20 15 21 20 15 12 12 12 24 89 97 96 94 98 100 100 100 99 95 92 93 91 86 79 72 66 68 78 85 88 84 81 76 74 75 75 72 70 70 70 72 74
31 33 37 35 28 25 21 17 14 14 12 12 13 12 16 33 73 76 83 80 88 86 92 94 97 98 95 93 94 94 95 95 94 89 77 74 82 89 86 80 77 76 75 72 73 73 72 73 77
31 38 38 32 30 18 14 12 13 14 12 14 12 12 16 28 51 48 46 50 48 43 46 46 52 65 82 87 91 97 99 95 92 90 93 97 92 88 88 86 81 80 76 72 73 72 74 76 80
35 35 31 30 28 13 9 8 8 8 9 10 10 13 16 26 49 39 35 35 33 32 30 29 28 28 28 30 42 55 77 89 91 90 91 90 91 94 90 88 86 84 81 75 72 71 72 76 81
23 33 35 25 20 11 6 6 7 10 11 12 17 18 20 44 47 35 32 32 32 32 30 28 26 26 25 25 25 25 29 46 65 67 69 75 82 85 89 91 88 87 86 82 77 73 73 76 81
22 32 28 22 16 9 6 6 6 9 10 13 30 50 49 46 46 48 50 51 42 37 33 29 25 24 23 23 23 23 23 23 24 24 34 45 57 70 89 84 88 87 87 86 82 80 78 78 80
20 18 20 15 12 7 6 6 6 11 10 12 26 53 55 53 54 56 57 53 51 49 45 35 28 26 25 25 25 25 27 26 25 26 26 24 28 48 65 90 88 87 84 86 86 85 85 81 80
12 13 15 15 10 6 7 6 7 8 11 15 43 52 54 57 58 56 58 55 54 49 45 40 33 29 28 29 28 29 29 32 31 32 33 32 30 29 40 67 76 91 88 82 82 84 84 88 81
11 10 10 10 10 7 7 7 6 18 51 49 50 54 58 58 58 56 56 55 53 48 45 44 37 33 33 32 32 33 31 32 36 38 41 42 42 41 42 49 91 82 85 92 80 78 80 82 80
11 13 12 9 9 8 8 8 8 39 52 51 54 60 60 58 58 58 56 56 53 47 43 46 40 37 35 34 36 39 41 42 42 42 46 49 50 50 52 51 48 84 94 88 94 80 75 74 74
14 15 15 12 10 10 9 9 11 44 47 54 55 57 59 58 59 62 60 59 55 49 48 42 39 37 35 39 41 43 49 53 52 52 54 58 60 61 62 55 50 52 82 96 95 98 90 80 75
14 16 18 13 10 9 9 13 10 46 50 60 57 58 60 60 62 61 60 59 53 46 43 47 51 50 50 50 47 46 50 55 59 62 66 69 71 73 76 76 65 54 50 93 99 97 100 100 92
22 17 18 15 11 10 9 11 19 49 50 58 62 64 62 64 63 62 62 60 50 45 47 54 62 61 57 54 52 52 57 62 65 69 72 72 74 77 83 86 85 74 69 53 86 100 100 100 100
21 20 18 17 11 12 12 12 32 49 52 61 65 66 65 65 65 62 64 58 44 41 45 57 64 63 61 57 56 57 64 69 73 78 79 79 83 83 88 91 95 94 94 87 62 88 100 100 99
20 19 22 20 16 12 15 15 16 50 67 68 71 70 69 66 62 63 63 53 44 45 50 56 63 66 62 62 72 71 82 75 78 79 81 83 87 91 91 92 96 98 99 98 98 84 91 99 100
21 23 25 21 18 14 15 15 29 65 67 62 67 72 71 66 64 64 64 55 54 57 58 58 57 61 69 74 76 89 92 88 89 86 88 86 87 87 88 88 91 96 99 100 99 97 93 98 99
26 26 25 22 14 11 11 14 36 57 62 62 64 66 66 68 68 67 68 62 57 56 58 60 61 63 70 74 76 84 85 88 90 94 96 94 92 92 93 94 96 94 93 98 99 100 99 97 92
30 26 23 17 14 20 13 22 15 65 70 64 67 71 72 70 69 72 72 64 62 58 56 58 58 60 67 72 78 87 90 87 90 93 94 96 96 95 94 95 96 98 93 96 97 99 100 98 96
28 24 24 18 17 17 17 19 18 70 76 72 72 70 74 72 76 78 72 63 60 55 56 58 62 62 64 70 81 86 91 94 94 92 95 95 95 97 96 98 98 99 98 95 96 97 98 100 95
22 20 23 26 23 28 23 19 23 73 63 66 67 69 73 75 78 76 67 62 61 56 58 61 64 59 61 68 78 83 93 97 92 93 93 96 96 97 97 99 98 99 100 100 99 98 97 100 99
16 21 32 31 30 32 22 22 19 40 52 60 64 72 74 74 79 79 73 71 66 61 60 62 63 61 65 72 80 86 96 96 93 92 94 96 96 98 99 100 100 100 99 100 100 100 99 100 99
22 25 53 47 39 33 27 28 23 63 64 58 62 70 74 79 79 78 72 72 69 63 59 62 66 66 70 76 81 88 94 92 93 94 98 97 98 99 100 100 100 100 100 100 100 100 100 100 100
27 30 26 43 44 53 40 35 58 69 70 66 71 75 79 80 79 74 69 70 67 62 61 66 70 69 73 80 84 91 95 93 90 93 98 99 99 99 100 100 100 100 100 100 100 100 100 100 100
26 25 36 48 40 40 34 36 39 77 75 71 75 79 79 79 79 73 71 70 64 62 61 64 70 71 76 79 83 89 87 90 92 95 98 98 100 100 100 100 100 100 100 100 100 100 100 100 100
34 42 34 35 49 39 41 37 52 62 64 70 71 72 76 79 78 73 70 70 65 62 62 65 70 72 76 78 82 88 89 90 93 96 96 98 100 100 100 100 100 100 100 100 100 100 100 100 100
23 34 37 48 46 53 44 36 67 59 59 64 65 69 73 78 78 71 72 71 66 65 65 68 71 74 75 76 81 89 93 91 98 97 95 97 100 100 100 100 100 100 100 100 100 100 100 100 99

GFSSGP_925_rhum_162.txt.gz
RH
27 25 23 15 12 9 10 11 10 17 22 18 17 21 24 26 30 37 79 78 76 77 80 86 83 83 89 85 82 78 75 70 69 68 68 70 70 69 71 74 73 76 74 70 71 75 79 76 71
26 24 17 13 11 8 8 10 11 15 20 16 16 18 19 31 40 57 72 84 79 81 92 95 88 90 87 90 91 91 88 85 82 79 76 75 75 74 72 72 74 73 74 78 72 74 77 76 70
26 21 14 12 10 8 10 11 12 18 14 13 14 13 18 26 54 84 98 97 99 97 99 94 84 85 87 87 87 87 88 89 88 87 86 85 83 81 79 79 76 76 77 79 80 79 78 74 69
19 15 13 13 10 14 12 12 13 16 12 11 13 22 38 60 71 89 94 88 83 86 95 92 86 86 85 85 85 86 85 85 86 87 88 88 88 85 81 79 81 80 79 80 78 79 80 76 72
16 13 14 13 12 15 14 11 14 14 13 13 13 28 46 57 72 76 78 77 76 82 86 90 89 88 88 87 84 83 83 82 81 81 83 85 85 86 86 80 76 77 80 80 80 80 84 78 75
13 13 14 13 13 15 13 12 13 14 12 14 20 34 42 60 64 65 66 66 66 68 72 70 71 78 82 87 86 83 81 80 79 77 76 76 80 84 87 88 82 75 74 75 75 79 83 82 78
13 13 12 13 14 15 12 12 13 13 11 16 23 29 43 58 57 56 56 54 53 54 54 51 43 40 41 46 60 71 79 77 74 75 74 74 73 75 82 88 88 85 78 74 74 72 80 85 81
14 13 15 13 15 14 10 10 10 11 11 9 14 29 51 52 53 49 49 49 48 49 50 48 44 32 32 33 23 23 27 44 56 62 66 66 68 71 76 70 87 89 88 84 77 75 74 80 82
12 13 12 13 16 13 8 9 8 7 9 11 15 21 36 49 44 42 42 42 42 44 48 49 45 34 42 43 28 24 20 21 23 28 29 53 62 73 76 79 71 72 82 84 84 81 78 78 78
11 14 13 14 13 11 8 8 8 8 10 15 25 34 40 38 34 31 29 34 38 43 45 46 38 30 42 42 43 45 48 50 47 44 41 52 52 55 47 70 76 75 72 73 77 80 82 82 74
10 12 13 12 11 8 6 6 6 8 10 12 22 34 32 30 28 27 30 34 36 46 48 47 52 48 45 53 50 49 50 53 54 59 49 57 57 54 48 48 60 77 78 73 64 70 77 70 64
11 10 10 9 8 8 7 5 6 7 9 8 17 27 28 27 27 27 30 31 34 38 45 49 52 59 61 54 50 51 49 56 54 61 70 65 55 56 56 48 52 48 66 92 92 64 64 67 68
9 9 8 7 7 8 7 8 7 8 14 11 23 27 26 26 30 34 34 37 36 39 46 52 54 60 59 55 56 59 58 58 67 62 70 72 65 66 63 59 55 50 48 50 84 98 89 68 67
9 9 8 8 7 8 8 8 7 16 20 24 29 26 26 28 31 36 35 36 36 41 48 54 56 62 64 58 64 62 61 60 61 62 75 80 75 74 66 64 60 55 54 54 58 73 94 97 85
9 11 9 8 8 8 7 8 8 15 21 26 26 27 27 28 31 33 35 35 36 40 49 53 52 63 65 59 60 58 58 62 61 63 72 81 80 78 78 66 65 63 68 69 59 56 60 81 95
11 12 15 11 9 8 8 12 8 19 21 24 26 28 30 31 32 36 37 35 37 42 48 53 57 62 65 64 61 59 61 61 62 64 67 80 84 84 78 69 69 73 73 67 65 63 55 53 86
15 22 18 16 9 8 9 11 9 17 19 20 26 28 30 32 34 38 38 36 37 45 46 52 58 62 67 65 63 63 65 59 61 63 64 81 80 85 82 71 72 80 72 72 74 68 67 60 55
25 22 20 20 12 10 11 11 9 18 20 17 24 26 29 33 33 40 39 40 38 48 50 52 53 62 64 56 51 49 50 54 57 60 66 81 79 83 82 73 76 78 74 75 81 90 80 77 67
18 20 20 18 12 13 13 13 11 13 20 19 22 25 29 32 36 42 42 41 38 46 47 50 49 57 55 48 48 47 47 52 54 61 70 77 80 82 82 76 80 82 82 89 90 91 91 78 70
18 21 21 18 14 14 15 16 13 11 19 17 19 24 29 33 39 41 40 41 43 44 48 47 49 54 54 50 55 58 56 54 56 58 67 71 78 82 78 85 86 89 91 92 91 89 90 89 77
22 24 24 22 17 16 16 18 16 11 17 19 20 22 27 32 37 38 38 40 41 44 49 47 50 52 56 62 50 50 46 44 46 56 57 67 74 79 84 88 91 93 93 89 95 92 90 91 89
31 24 23 22 22 26 14 20 15 15 22 26 27 26 29 32 34 35 35 37 43 47 50 50 54 52 54 62 57 60 52 49 56 56 60 66 70 76 82 89 94 96 93 94 94 90 97 97 90
28 22 23 22 24 25 22 21 16 13 18 21 26 29 32 34 36 36 34 37 41 50 52 54 52 53 58 63 64 60 58 57 56 58 63 63 65 72 79 88 92 93 95 96 97 96 97 98 98
19 20 21 21 23 32 23 23 18 16 17 16 18 25 33 36 39 38 39 40 41 50 51 54 53 51 58 61 63 65 68 68 63 63 60 59 64 68 75 83 90 95 96 98 98 99 99 96 97
19 23 29 28 28 24 17 20 17 17 21 22 20 26 34 40 43 40 36 35 40 46 50 51 52 50 56 60 63 66 67 65 62 64 62 67 64 67 73 87 90 94 97 99 98 98 97 98 97
26 26 36 40 30 23 18 23 16 24 30 30 30 30 38 43 45 39 37 39 42 48 51 55 55 51 55 60 64 65 67 63 63 66 70 67 68 71 79 86 96 97 99 99 99 97 96 97 99
34 38 29 43 37 40 26 18 22 27 29 36 33 36 45 47 45 41 43 45 45 48 54 61 59 54 57 63 64 64 68 70 71 76 75 71 72 73 78 89 94 95 96 97 98 96 96 97 98
28 24 39 51 82 79 38 32 25 28 28 38 41 43 47 47 45 43 44 49 47 49 51 60 61 57 61 65 67 68 72 75 78 82 79 77 75 78 82 87 91 93 94 93 91 94 95 95 96
30 35 34 42 52 54 42 26 23 26 24 34 38 42 47 48 45 44 48 51 49 50 51 55 59 60 63 66 71 75 80 81 81 85 85 78 78 78 82 86 91 92 90 90 89 90 91 91 91
27 28 31 56 50 37 36 32 25 27 28 31 35 43 44 45 44 44 51 55 53 53 53 53 60 63 66 68 73 78 80 83 79 81 87 81 78 79 82 87 94 92 91 90 87 89 91 90 90

GFSSGP_925_rhum_165.txt.gz
RH
22 22 16 14 12 7 6 7 7 11 16 15 16 18 28 32 34 55 70 70 72 81 82 90 84 93 88 84 82 77 73 70 69 71 75 79 80 80 80 77 78 79 81 82 80 76 77 76 73
20 17 15 11 10 7 5 7 7 13 17 17 19 19 23 43 45 64 66 92 86 87 88 96 89 84 86 90 87 85 82 77 73 71 71 71 74 78 80 81 80 81 81 82 83 83 80 76 72
21 16 13 11 10 8 8 7 8 15 15 12 13 14 19 41 59 84 91 85 75 86 92 98 91 89 88 88 88 87 86 85 83 81 78 75 74 75 76 78 79 76 79 80 88 89 83 74 69
13 11 10 10 9 7 8 8 10 12 11 10 11 24 39 53 62 89 82 72 72 76 88 90 85 85 84 84 84 84 85 85 85 84 85 84 82 80 80 79 76 76 76 76 80 85 86 79 78
12 10 12 12 9 8 9 8 10 12 10 11 11 23 43 60 73 74 71 70 71 74 78 86 85 84 84 84 84 83 80 78 78 79 80 83 85 87 85 84 82 78 76 76 76 77 78 81 80
11 9 12 10 8 9 10 9 10 10 10 10 12 28 39 61 64 66 67 66 68 70 68 66 65 74 82 83 84 83 81 80 79 76 74 74 76 81 85 84 83 85 82 77 75 76 76 74 77
11 11 12 9 9 10 10 10 10 11 10 12 13 24 43 51 62 62 60 56 57 59 57 58 60 58 40 33 41 52 66 72 71 73 72 72 72 71 70 72 81 84 84 83 80 78 78 76 74
10 10 11 10 9 10 9 9 9 10 10 12 14 23 46 50 57 56 53 51 50 50 50 51 51 57 56 54 23 21 21 22 25 34 46 59 64 69 78 72 79 89 87 85 80 78 80 80 77
8 11 11 9 10 10 8 10 8 8 9 10 12 19 32 51 50 48 49 49 47 45 45 50 50 54 50 41 45 50 46 44 43 44 38 40 48 54 56 58 70 75 72 76 81 80 79 84 83
9 11 10 10 10 10 9 8 8 9 9 13 18 33 42 46 43 42 38 38 36 36 41 44 51 54 46 36 48 46 45 46 50 55 59 49 53 46 43 42 46 58 75 82 66 57 64 77 81
8 11 9 10 9 9 7 8 7 9 10 12 22 33 37 38 35 28 24 26 29 38 41 40 48 56 53 48 44 42 40 47 48 53 66 58 55 48 43 41 36 43 43 56 78 80 76 70 61
11 10 9 8 8 8 8 6 8 7 9 8 14 25 30 30 24 20 22 26 29 33 39 43 47 53 58 48 42 45 43 49 50 54 65 64 53 52 54 44 47 41 34 40 42 70 82 76 70
12 12 9 8 7 8 8 8 7 7 8 7 16 21 22 22 21 21 22 26 29 34 40 45 49 54 54 48 52 54 52 49 61 54 62 72 66 60 61 56 53 48 43 40 41 43 54 80 84
12 9 9 8 8 8 8 9 8 7 9 11 18 19 19 19 20 26 27 29 30 35 42 46 48 55 55 50 56 53 49 52 51 53 68 75 74 71 64 60 54 51 50 53 57 54 53 49 74
10 13 12 10 9 9 7 9 9 7 11 15 18 18 17 19 22 25 26 27 29 34 41 43 42 54 56 50 52 47 46 52 50 53 58 72 75 74 73 59 56 55 63 62 55 54 52 47 43
17 16 17 12 10 9 9 13 9 7 12 15 17 17 18 19 21 24 27 27 29 32 38 45 46 53 57 55 52 50 49 51 49 52 54 68 76 75 74 62 59 65 67 59 60 59 54 54 51
18 21 16 14 10 10 10 12 9 10 11 12 16 16 18 20 21 26 28 27 29 36 38 43 48 53 57 54 52 52 50 45 47 50 52 69 72 76 76 66 62 72 63 61 63 65 68 64 57
18 18 16 16 12 11 12 12 10 10 12 11 14 16 18 20 22 27 29 30 30 39 42 44 44 54 55 47 41 38 38 41 44 48 52 68 69 72 75 67 68 71 67 66 72 79 78 75 67
17 18 18 14 12 14 14 14 12 10 11 13 12 16 18 21 22 29 31 33 32 40 39 42 42 47 43 37 38 38 39 41 43 47 54 63 68 71 72 67 70 70 72 76 77 81 82 78 74
19 22 20 15 12 15 16 16 13 12 11 12 12 14 17 20 23 31 34 34 34 38 40 38 39 44 42 39 41 45 43 42 43 45 53 56 63 68 66 73 74 77 80 80 78 85 88 83 81
24 24 23 22 18 17 18 19 16 13 12 10 12 11 14 19 25 32 33 34 36 37 41 38 40 42 48 52 38 40 36 34 35 44 47 54 60 65 68 72 77 82 88 85 87 88 86 87 85
25 18 20 22 26 28 16 22 13 10 12 11 14 14 14 18 23 29 31 33 35 40 43 41 44 42 45 53 46 52 42 40 45 44 48 56 56 60 65 71 75 80 86 89 92 88 94 92 90
18 15 21 23 24 22 19 21 16 11 13 14 15 16 17 19 25 28 30 30 33 41 44 46 43 44 50 53 55 50 49 48 47 48 54 52 53 56 61 69 75 78 85 88 90 94 96 93 92
18 23 22 22 22 29 20 20 16 13 13 13 14 18 19 21 26 29 30 32 35 46 47 47 42 43 50 52 55 57 58 58 53 52 53 50 54 54 58 67 74 79 82 90 94 95 95 93 91
21 25 29 28 29 27 13 14 12 14 14 15 14 16 21 26 31 34 33 33 32 40 45 42 43 41 48 52 54 56 58 56 52 52 52 59 55 57 60 70 74 82 90 93 95 94 93 93 92
23 23 32 32 28 22 14 20 14 15 17 19 21 15 23 29 35 36 33 31 36 41 44 46 44 41 46 51 55 56 58 54 55 57 63 61 60 62 66 70 78 85 90 90 91 93 92 90 93
31 32 24 39 33 41 29 21 13 16 18 21 20 22 28 33 37 38 33 34 36 39 49 53 47 43 47 53 56 55 59 63 64 67 68 66 66 66 65 73 78 82 88 90 89 90 91 91 92
30 27 59 61 72 61 31 24 21 19 20 21 25 28 34 36 39 37 36 38 37 39 48 53 50 47 51 56 59 60 64 67 68 69 72 75 72 71 72 74 78 85 87 91 88 89 89 90 90
32 37 32 35 62 48 43 28 19 23 20 25 25 29 35 39 40 38 38 40 40 41 43 49 51 51 54 57 62 66 68 70 70 70 74 77 78 73 74 76 79 83 86 86 88 86 86 86 90
23 40 38 56 54 46 42 37 17 22 21 22 26 30 35 38 39 38 41 44 43 42 42 45 52 54 56 57 63 66 69 71 71 74 77 79 78 75 75 76 79 82 85 88 87 86 89 88 88

GFSSGP_925_rhum_171.txt.gz
RH
11 13 18 30 32 32 30 19 11 16 26 43 51 66 83 69 60 86 90 87 93 94 78 81 80 75 72 71 70 69 68 67 66 68 71 75 78 77 73 73 71 73 71 73 88 84 86 85 82
13 14 20 27 31 34 28 16 27 27 24 40 48 57 69 88 74 90 85 89 92 86 80 83 81 81 80 78 76 74 73 72 71 70 70 71 74 77 77 74 72 72 73 74 77 86 87 82 80
12 17 27 31 33 29 23 22 25 21 16 17 25 40 55 84 81 86 87 87 84 85 86 88 79 76 75 75 76 76 74 71 70 71 73 73 75 76 76 76 75 74 74 76 78 77 78 79 81
13 20 24 25 23 17 15 19 20 17 14 22 37 60 66 75 77 82 82 80 81 91 87 84 78 74 75 75 75 75 76 75 74 74 72 72 75 78 82 81 79 78 77 76 79 80 78 74 74
12 20 26 26 23 16 12 15 14 14 13 21 35 60 80 76 75 80 77 78 84 90 88 84 81 80 80 80 80 79 78 78 76 75 74 73 72 73 76 78 84 86 84 82 80 78 77 75 76
14 20 27 26 20 13 11 10 12 13 12 39 48 59 81 73 69 72 74 75 71 69 68 69 69 68 68 68 65 66 64 64 65 66 66 68 72 71 72 74 78 76 84 86 85 83 80 77 76
14 20 23 22 16 14 12 10 10 12 13 18 37 67 79 67 67 70 72 71 70 68 64 60 55 46 39 28 24 25 29 30 35 34 33 44 53 60 54 67 78 80 79 81 84 84 82 79 76
13 18 19 18 16 16 12 10 9 11 14 15 39 70 88 68 65 65 63 61 58 55 54 53 50 41 40 34 34 38 46 48 47 41 33 40 46 44 47 42 43 42 43 63 73 72 69 70 77
9 19 23 18 15 15 12 12 10 10 18 40 50 45 53 64 61 57 55 54 53 51 51 48 38 38 46 37 44 46 44 49 51 44 36 36 47 53 47 45 46 45 44 43 44 51 77 87 82
14 21 19 13 11 13 12 12 10 10 17 57 66 62 62 62 60 58 59 55 49 49 48 43 33 41 41 41 43 46 42 48 52 46 42 44 57 58 51 53 51 43 45 44 42 42 45 79 80
17 17 13 12 12 10 10 11 10 11 13 36 66 68 63 61 58 57 56 50 44 43 44 45 35 40 42 45 43 46 45 43 53 54 48 44 57 52 51 54 55 54 53 52 46 44 44 47 49
23 18 14 11 12 9 10 10 12 10 11 29 55 57 59 59 57 53 54 43 41 41 44 48 46 38 47 45 40 44 50 50 56 58 50 46 59 56 58 62 60 60 62 56 54 52 54 52 50
20 20 16 14 13 11 9 10 12 12 23 44 49 52 55 53 48 45 38 37 41 43 46 48 49 44 50 39 45 52 45 53 55 58 62 54 53 57 58 63 63 66 62 58 62 63 61 59 58
21 19 18 15 15 14 14 13 11 11 33 39 43 49 48 47 44 31 33 40 39 43 46 49 49 50 51 46 48 50 45 51 52 59 64 58 68 62 64 67 69 69 64 67 68 69 68 67 63
24 28 22 17 16 17 15 18 14 11 23 35 39 41 44 42 27 32 34 36 40 43 46 46 46 49 52 46 48 49 44 49 50 58 58 54 71 65 66 70 77 70 68 70 71 72 71 69 70
29 30 36 23 20 17 18 22 16 12 13 30 32 32 34 30 29 29 29 33 37 41 41 42 52 47 52 46 47 45 46 47 49 55 54 56 66 67 65 71 71 70 73 74 73 77 81 78 83
37 42 34 29 21 19 19 20 14 12 12 20 26 27 28 31 33 28 29 32 36 40 42 44 52 49 51 42 43 44 44 44 48 50 50 64 61 66 67 71 72 73 74 74 81 84 83 88 88
44 39 29 29 20 13 14 16 14 11 10 15 26 26 27 30 33 31 28 33 36 40 44 46 49 43 44 43 42 45 41 44 45 49 52 61 59 64 67 69 74 74 74 75 84 84 85 85 85
32 32 30 24 19 19 20 19 16 14 13 20 24 24 24 28 35 31 30 34 37 39 40 44 47 45 41 40 40 41 41 43 47 48 56 54 59 62 66 71 74 77 77 82 85 85 86 82 85
24 27 29 24 19 20 24 21 18 16 15 18 19 22 22 32 34 35 35 39 37 41 41 40 44 43 41 40 40 41 40 42 46 51 53 52 57 59 64 68 74 75 78 80 84 85 86 86 84
26 24 27 30 24 24 26 28 24 18 15 15 15 16 18 28 37 38 38 45 39 39 39 40 42 45 42 47 44 41 42 46 44 52 53 55 55 58 61 68 70 71 77 80 82 84 90 93 86
30 20 22 24 27 34 23 37 27 23 21 18 14 15 18 25 36 38 41 47 42 41 39 40 42 47 50 52 48 50 51 50 51 54 52 57 53 59 65 68 70 75 76 80 84 88 88 90 93
23 21 21 25 26 29 26 37 28 20 20 16 16 15 15 29 39 42 44 46 46 41 42 42 43 48 53 54 56 55 57 54 53 52 60 56 58 61 66 66 73 75 79 85 86 87 89 89 92
21 23 26 24 32 45 29 34 28 22 18 14 12 19 30 41 42 44 44 50 47 45 45 44 45 51 53 55 57 58 57 56 56 60 61 61 64 66 67 72 75 76 78 84 86 86 86 86 84
22 30 54 53 54 48 28 33 28 20 18 19 25 41 41 42 44 44 53 53 54 49 49 45 47 51 53 55 57 58 58 59 63 65 67 71 71 73 74 74 76 76 80 84 87 86 86 84 90
30 32 63 58 52 42 28 35 23 20 22 21 26 39 42 45 42 46 52 52 54 51 48 44 44 50 52 55 57 59 62 65 67 68 70 72 74 76 77 73 75 78 81 85 86 87 87 85 83
30 36 27 42 38 54 43 29 20 17 25 23 35 43 49 47 44 44 50 52 51 48 44 44 46 50 53 56 58 63 65 68 69 70 74 75 76 77 76 76 74 78 81 84 85 85 84 85 89
36 27 41 85 90 75 51 45 37 40 38 33 44 50 51 47 45 44 50 49 53 52 49 46 49 53 57 59 64 67 69 70 72 74 76 76 76 77 77 75 76 78 80 82 83 84 88 86 87
53 54 71 81 98 93 80 57 37 42 40 39 48 51 51 50 49 52 48 51 57 54 52 49 52 56 58 61 66 70 71 71 72 74 76 76 77 77 76 77 77 77 81 79 79 92 87 87 87
60 69 90 99 99 99 79 64 36 53 51 43 49 47 51 51 50 48 50 54 58 55 53 53 55 56 58 63 68 70 70 70 74 76 74 75 75 74 76 77 82 76 81 78 97 94 90 93 93

GFSSGP_925_rhum_177.txt.gz
RH
7 10 21 29 28 39 36 28 20 18 45 62 55 51 66 85 60 64 97 99 80 88 93 96 79 77 73 71 72 72 74 76 78 80 86 91 92 92 84 80 76 74 76 87 80 81 82 80 76
8 14 24 33 37 35 24 25 42 52 73 63 61 68 74 88 87 97 96 99 98 99 99 100 85 81 81 80 80 82 79 78 78 80 86 93 92 90 88 88 86 81 78 82 88 81 77 78 78
10 19 25 36 43 34 27 22 20 63 63 42 66 68 78 95 84 94 98 98 100 99 98 100 89 80 80 77 77 78 79 79 79 80 78 77 82 87 88 89 90 87 87 84 86 85 80 75 72
11 20 28 32 32 29 23 20 16 42 48 54 72 88 80 78 87 96 100 96 99 98 100 87 78 77 77 78 80 80 80 78 75 73 73 74 77 79 79 81 86 89 89 89 87 86 85 81 75
15 27 30 31 28 24 20 17 16 30 30 60 65 90 86 87 88 97 98 96 84 94 88 83 80 78 78 79 78 77 75 74 70 68 68 71 69 68 68 81 85 78 80 87 92 92 91 89 85
15 25 28 28 22 19 17 15 18 22 44 67 83 82 84 96 98 98 87 88 89 87 88 85 84 82 78 72 66 63 58 56 56 54 59 63 61 56 64 76 56 48 47 56 73 79 82 86 92
13 20 20 21 21 19 14 15 14 26 49 59 74 92 92 91 96 90 92 90 88 83 78 71 59 44 33 30 31 32 30 27 26 31 40 53 54 52 50 48 46 44 47 50 50 56 64 81 86
18 20 20 20 21 19 14 13 13 27 34 54 66 89 88 79 91 86 87 78 72 68 62 52 41 34 34 38 42 41 36 31 23 26 34 40 44 46 46 46 46 45 46 45 44 47 68 76 76
16 20 21 18 18 16 14 13 15 49 54 65 70 72 71 87 88 80 74 73 70 67 61 49 43 42 44 45 44 41 40 34 30 35 40 38 39 43 47 50 50 49 50 49 47 45 46 51 55
24 26 22 16 16 16 14 13 12 28 49 56 79 77 83 83 81 80 80 80 72 65 60 49 47 46 49 45 44 41 42 40 32 35 38 35 39 47 52 52 51 50 50 50 49 47 43 42 44
21 26 20 20 17 15 14 13 11 18 36 47 68 92 82 78 77 75 73 70 64 58 53 49 49 48 45 44 44 45 51 48 41 36 35 35 43 52 53 50 52 52 53 50 50 49 51 50 46
24 22 21 20 18 18 15 12 12 12 12 15 64 81 80 79 76 73 70 66 61 57 49 50 45 46 45 44 46 52 55 51 46 42 38 35 46 56 58 58 58 56 60 60 61 58 57 52 46
24 23 24 24 26 19 18 17 14 14 12 53 75 78 79 76 72 67 66 60 57 56 50 52 50 47 45 45 48 55 55 53 53 46 41 39 51 59 59 59 57 57 58 58 56 53 48 44 40
23 25 27 27 26 25 21 20 16 16 67 75 77 82 78 74 69 68 63 60 58 53 49 47 49 48 48 48 50 54 58 56 53 49 44 42 51 58 55 53 54 53 55 54 50 46 42 39 38
23 28 30 26 27 23 19 27 23 18 66 78 79 79 77 72 66 67 62 58 54 51 49 49 49 50 50 50 52 54 57 56 53 52 47 45 49 52 50 46 47 48 46 48 47 43 44 39 34
31 30 41 27 26 26 25 36 25 26 67 78 79 80 78 74 67 64 60 55 52 52 53 51 48 49 48 49 52 53 58 55 54 53 50 49 51 53 50 51 52 50 44 45 52 54 51 51 44
42 51 43 34 28 28 26 32 25 26 58 64 73 78 78 76 68 57 55 53 52 52 52 51 48 48 49 50 52 53 56 54 56 54 53 53 53 55 53 56 58 52 47 52 58 60 66 70 58
57 51 46 44 31 32 34 34 26 20 37 56 67 73 76 74 56 51 54 55 51 52 50 45 44 46 48 51 52 55 56 60 57 56 55 56 58 59 58 61 60 57 54 58 57 66 71 82 80
40 44 48 37 29 37 37 35 28 22 17 34 61 68 69 68 48 50 57 56 54 53 50 47 46 48 48 52 52 56 59 61 59 60 59 62 63 64 62 61 60 61 63 69 73 78 81 87 80
40 45 46 39 34 36 36 31 30 26 22 19 43 56 58 51 49 55 58 58 58 59 51 48 44 47 46 49 47 52 58 59 62 61 63 64 64 65 64 63 63 60 62 73 80 84 88 87 81
50 50 49 47 37 32 31 32 31 25 22 18 22 36 43 46 48 54 59 59 61 59 52 45 44 45 43 43 44 53 59 61 60 64 69 68 65 67 67 66 66 68 73 81 84 85 86 90 84
47 43 45 47 51 58 30 42 30 28 27 23 22 31 38 44 44 50 56 61 61 59 50 45 45 43 43 44 48 54 58 64 67 69 69 71 70 71 71 70 71 75 77 84 86 84 84 84 86
34 27 34 35 38 39 35 44 30 27 27 26 23 24 32 43 44 51 54 57 59 56 52 50 48 47 48 45 50 54 61 66 72 72 71 72 72 72 72 72 74 78 80 83 83 84 86 84 92
25 29 32 33 41 50 33 38 31 27 25 22 20 18 23 41 43 50 55 59 61 57 56 55 53 56 54 52 53 54 62 66 70 74 74 75 74 74 74 73 75 78 80 83 84 83 84 81 85
27 38 57 61 62 49 31 38 28 24 22 26 25 31 49 34 50 61 60 60 64 66 63 59 57 61 57 56 58 59 61 62 66 71 74 76 76 76 76 76 78 81 81 79 81 82 86 84 84
34 34 45 61 58 46 32 42 32 27 53 55 57 60 57 58 59 59 58 59 62 65 62 62 61 62 59 59 63 65 65 67 72 71 71 78 78 77 77 78 78 78 80 75 78 86 87 76 69
46 42 28 41 42 55 46 40 28 51 61 60 61 67 73 68 63 60 58 57 59 63 65 64 65 66 66 68 69 70 69 70 73 73 73 78 79 78 78 77 75 78 77 78 79 93 80 67 71
49 49 60 74 70 64 59 48 72 94 83 68 71 73 75 70 66 62 61 58 60 64 64 64 64 65 68 68 69 71 72 73 73 71 75 75 75 78 78 74 77 80 82 81 80 84 72 69 74
67 77 98 99 87 67 52 76 83 87 88 86 68 66 71 69 64 63 65 60 64 68 71 68 65 66 69 70 71 72 74 72 69 74 75 74 76 76 75 76 84 92 94 89 78 78 78 73 78
77 89 95 99 96 98 97 97 84 79 80 81 84 82 66 61 62 64 63 62 66 69 68 69 72 72 72 74 73 74 72 69 72 76 70 69 73 72 75 80 76 100 100 92 79 80 81 75 90

GFSSGP_925_rhum_183.txt.gz
RH
8 12 24 25 21 21 17 20 19 27 27 57 45 49 44 57 46 46 99 97 100 99 97 88 77 77 80 80 81 93 95 95 97 96 97 96 92 85 83 78 78 80 81 78 82 87 78 80 76
10 19 24 26 22 14 9 20 23 49 48 57 56 56 53 62 78 89 94 99 98 99 99 99 94 96 98 98 100 99 100 99 100 98 96 91 85 85 85 81 78 78 82 82 87 79 74 74 74
15 21 19 27 28 15 12 19 22 50 56 52 59 66 68 76 80 83 98 98 98 92 95 97 98 99 99 99 99 90 80 79 78 79 81 85 86 86 85 84 81 82 79 81 84 82 80 78 77
13 17 22 25 27 25 21 18 18 49 56 53 58 64 77 82 76 92 99 90 91 94 96 98 100 98 95 85 79 78 77 76 74 75 77 78 80 84 84 83 83 84 89 91 86 82 81 81 80
17 18 21 26 26 22 20 17 17 18 47 51 59 67 81 94 95 97 99 97 99 94 97 99 96 89 84 82 78 75 72 70 71 72 71 71 72 79 80 76 72 73 77 85 85 85 84 84 84
12 18 21 21 22 17 15 15 15 19 26 60 58 71 81 99 100 100 100 100 96 96 98 100 89 86 81 78 75 72 69 68 68 70 66 66 74 76 67 60 55 55 61 67 70 73 77 80 81
12 15 17 20 19 17 14 14 16 38 53 56 59 59 83 95 100 100 100 99 100 100 98 92 92 84 77 72 69 67 62 61 62 64 62 59 56 55 54 52 50 50 51 53 59 71 79 86 88
13 13 17 18 18 16 14 14 14 29 42 59 62 55 66 75 100 100 100 100 100 98 93 90 79 66 60 52 46 37 31 32 37 47 53 55 54 53 52 52 50 49 48 48 47 49 60 62 63
15 18 19 16 18 15 15 17 20 44 59 61 59 59 65 91 100 100 100 100 98 93 80 62 52 47 45 44 40 33 28 26 33 38 41 42 45 47 50 52 49 48 47 46 44 42 42 44 48
16 22 20 15 15 18 16 17 15 35 50 54 59 72 87 95 100 97 96 94 89 82 61 49 44 45 48 47 41 35 39 37 32 35 40 39 43 46 46 47 46 45 46 44 42 41 37 35 34
23 24 23 18 15 17 20 19 12 18 35 37 42 57 90 91 95 94 92 86 82 78 69 48 47 51 51 45 41 36 34 33 36 34 33 39 44 48 46 46 44 41 40 40 39 36 33 32 34
27 24 22 20 21 23 23 18 17 14 14 18 20 57 87 88 86 88 85 81 79 77 69 51 53 54 53 47 44 38 32 29 30 34 40 40 42 42 41 41 38 35 32 30 28 29 28 27 27
32 27 24 22 23 22 23 22 21 19 15 13 41 71 77 80 81 86 80 79 76 74 70 56 55 55 51 48 46 40 37 32 33 41 44 39 37 36 34 31 28 27 25 22 24 22 22 21 22
27 27 28 27 26 26 26 23 24 19 18 28 56 55 67 76 79 82 80 76 74 70 67 55 55 53 49 48 47 45 41 36 36 40 43 42 37 34 33 32 31 28 25 21 19 17 18 20 26
28 35 30 26 27 27 26 27 26 19 36 34 46 52 60 68 76 76 76 73 70 69 65 56 54 53 51 51 52 49 45 40 42 47 45 38 34 31 27 27 26 25 24 22 21 20 21 33 46
33 38 33 26 27 24 24 22 21 24 27 24 34 50 65 69 70 72 75 72 69 67 66 57 58 56 53 53 55 53 49 45 47 48 46 39 35 30 29 34 36 29 26 34 30 29 47 52 55
46 36 40 32 27 27 28 31 24 22 25 27 30 39 59 68 72 73 75 72 70 68 66 65 57 56 54 59 59 56 51 54 57 54 51 45 41 38 39 46 39 37 42 39 50 53 56 57 57
36 48 47 36 30 32 31 31 26 25 26 27 25 27 52 64 66 70 75 71 70 71 63 56 58 57 57 66 64 65 65 69 66 66 58 51 48 42 37 39 36 37 50 61 64 66 66 64 66
30 40 37 31 31 35 32 32 31 28 29 28 25 23 36 58 54 70 74 70 71 73 68 65 67 64 64 80 76 75 75 79 82 80 61 56 52 46 40 54 56 58 69 68 67 67 66 60 64
38 42 43 38 34 39 39 40 32 29 28 26 24 23 26 45 64 73 72 70 71 72 68 70 68 68 72 74 71 71 76 79 83 85 74 62 55 51 47 49 62 72 74 77 77 74 65 66 68
46 48 47 46 38 39 41 32 21 22 27 25 23 22 22 34 55 70 69 70 71 70 69 67 68 74 74 76 76 81 84 88 86 86 83 79 61 56 54 53 63 71 77 78 79 79 73 64 69
42 40 41 42 49 44 38 41 28 23 21 22 22 24 23 33 53 60 65 68 69 70 71 71 73 74 74 68 71 72 67 70 77 82 86 84 72 62 56 55 65 79 82 83 79 82 80 74 72
32 28 35 43 46 49 37 42 25 23 22 20 30 50 48 45 42 57 61 64 67 71 72 74 76 72 71 72 72 71 70 79 85 86 86 85 84 77 67 69 76 83 82 88 88 87 81 76 73
25 26 29 33 35 40 32 36 26 31 59 48 52 55 58 54 44 52 58 63 68 76 80 78 72 73 72 76 74 72 78 82 82 82 80 82 82 84 80 71 78 86 88 92 86 80 77 75 76
27 31 35 36 44 39 26 35 29 54 64 63 66 64 61 59 62 62 62 63 67 74 77 78 71 75 79 74 72 76 78 80 80 81 79 82 83 83 86 82 83 88 95 92 82 79 79 82 76
37 34 41 45 37 33 34 37 31 65 58 58 60 62 62 62 61 63 65 65 68 72 73 69 70 76 79 79 80 83 82 82 80 81 82 80 84 84 87 87 88 97 94 82 77 77 76 82 78
46 45 34 47 43 53 37 44 77 62 67 64 61 59 65 65 64 64 65 67 67 68 71 70 74 79 81 79 76 77 78 80 84 79 74 84 89 87 86 89 87 80 81 87 79 75 76 81 81
49 47 65 79 82 61 40 40 41 86 72 59 63 67 65 64 64 64 64 68 66 68 71 77 76 80 83 82 81 83 83 82 85 84 88 88 88 82 93 92 89 86 81 80 80 72 78 77 80
65 68 81 79 92 92 80 76 86 85 76 69 57 65 64 65 65 64 64 70 70 71 78 82 81 83 84 82 84 80 82 81 82 83 87 84 80 85 98 97 91 85 80 76 68 67 75 73 71
66 87 63 92 87 88 85 82 74 74 70 70 57 49 66 62 64 63 64 69 74 80 83 86 87 91 90 83 88 85 84 86 85 87 87 81 81 99 99 98 91 85 81 76 66 68 73 71 69

GFSSGP_925_rhum_189.txt.gz
RH
10 16 14 13 15 9 7 5 5 10 11 19 21 20 20 13 24 34 54 60 45 63 74 86 67 66 70 72 71 73 72 72 70 66 65 68 70 75 81 82 83 84 81 81 81 90 89 77 71
14 11 13 12 13 9 6 4 9 10 13 20 24 26 24 23 34 53 60 67 54 61 74 81 73 70 75 75 73 78 84 85 87 82 78 80 79 75 78 82 83 81 78 79 87 85 81 76 76
16 10 10 11 11 9 6 7 8 9 14 19 25 27 25 33 38 46 60 71 59 59 65 83 82 82 83 81 80 80 84 85 86 86 86 83 83 80 81 81 81 82 82 90 89 86 78 78 76
10 8 9 11 9 7 7 7 8 8 8 17 20 30 35 46 42 57 67 74 67 56 69 91 96 94 91 88 88 88 89 92 91 89 88 89 89 89 90 88 88 87 84 84 91 90 84 84 84
9 7 9 10 9 6 7 6 8 8 8 12 19 27 38 50 55 65 71 75 78 80 93 95 97 97 97 98 96 95 99 99 94 91 94 99 96 91 90 91 91 92 92 92 91 89 89 87 87
9 7 10 9 6 6 7 7 8 8 8 9 19 21 40 55 61 71 74 81 91 94 96 97 96 98 99 99 90 85 86 91 89 84 84 85 83 81 77 73 72 71 72 76 79 83 86 87 86
10 8 10 8 8 7 7 7 9 8 10 13 14 22 44 56 69 79 78 87 96 99 98 97 98 99 97 83 79 79 78 83 80 78 78 76 75 70 66 62 60 59 61 65 70 75 80 83 85
11 9 10 8 8 8 6 8 7 8 12 18 19 23 32 58 78 84 85 91 98 99 99 99 97 98 99 88 76 75 75 76 74 71 72 70 65 59 56 52 52 50 49 49 49 54 61 62 62
10 14 12 8 8 8 7 8 7 9 12 16 22 25 34 67 85 88 86 95 97 98 96 91 87 87 89 92 85 71 71 70 67 64 61 54 60 62 71 72 47 44 41 40 40 39 37 36 37
13 14 12 9 9 9 8 8 8 10 10 12 16 25 40 66 82 86 90 91 94 95 86 81 79 79 82 72 82 81 74 63 55 56 56 50 53 52 57 57 41 37 35 33 30 29 28 32 32
14 17 12 11 11 11 10 10 9 10 10 8 11 16 32 49 65 78 78 82 88 81 76 70 74 76 71 60 64 57 46 46 51 53 53 54 58 55 50 54 54 51 43 41 38 38 36 46 41
17 14 14 12 12 13 14 12 12 12 11 8 9 10 17 35 44 64 72 74 74 71 69 65 69 74 64 57 51 42 42 47 51 54 59 58 50 49 41 36 40 37 36 39 34 34 42 43 44
15 14 12 12 13 14 13 14 14 14 11 10 10 10 12 23 31 43 55 64 63 61 64 61 63 69 59 49 37 39 41 46 47 59 58 48 44 47 40 42 34 32 32 32 33 32 36 36 42
16 15 15 13 13 12 15 15 14 12 10 10 11 11 11 12 18 25 41 52 55 52 60 60 59 66 58 44 42 44 43 50 52 52 56 55 45 48 42 39 33 32 31 34 37 41 34 36 38
18 22 19 16 13 13 12 15 14 10 10 11 12 12 12 13 12 14 22 39 44 48 55 58 58 62 58 42 48 47 47 49 47 51 61 56 50 47 41 36 32 32 42 44 40 37 38 35 35
23 21 24 15 13 13 14 18 11 10 12 13 13 13 13 12 13 14 18 26 34 43 53 57 55 58 58 47 50 42 46 44 46 52 55 56 52 48 39 36 36 39 39 37 37 36 33 34 35
20 25 20 16 13 14 16 18 11 12 14 13 13 12 12 11 11 14 17 21 31 40 50 57 56 56 57 51 48 44 50 44 45 48 52 59 53 48 38 40 47 42 39 41 36 39 38 35 34
20 18 16 17 15 14 17 17 13 12 12 13 12 12 12 11 11 11 14 21 28 40 50 57 57 57 58 54 49 48 51 44 47 47 51 59 54 52 44 45 50 40 39 42 45 43 41 36 35
17 18 19 15 12 14 16 16 15 13 13 13 13 13 14 14 11 10 12 21 30 43 53 58 58 59 59 57 50 49 46 46 47 48 62 57 55 53 49 47 50 45 45 50 52 44 43 39 40
20 22 20 17 15 17 18 18 16 14 14 13 13 13 12 12 12 10 10 22 34 43 53 58 58 59 60 54 49 46 44 47 48 55 60 58 58 55 50 48 47 47 53 57 55 48 40 40 47
22 26 25 23 18 18 20 20 17 13 10 12 12 12 12 16 18 14 12 25 39 46 52 56 57 57 59 50 47 45 46 48 53 58 61 63 60 54 54 54 53 56 50 53 55 52 48 38 46
25 18 19 20 23 27 19 23 16 12 13 13 12 20 23 25 24 23 21 26 43 48 51 56 57 56 58 50 44 44 44 46 51 57 57 61 60 58 58 60 61 56 54 57 54 57 51 42 39
22 17 20 21 24 25 22 25 19 14 14 12 17 25 27 28 29 30 26 23 38 46 52 62 60 57 59 54 45 47 45 46 50 53 62 61 62 62 60 63 64 64 60 68 65 61 55 52 44
16 20 20 22 24 37 26 24 21 16 13 12 24 28 32 31 33 32 30 32 33 44 54 66 66 62 62 56 51 50 49 46 50 55 62 61 61 62 65 66 68 69 70 66 65 66 65 61 56
18 23 32 29 33 36 19 20 17 22 29 30 32 31 33 33 36 34 35 34 37 42 64 71 71 66 64 61 58 58 55 48 53 61 59 60 58 60 68 70 71 73 72 69 67 68 66 63 60
22 21 32 36 29 22 14 22 17 25 31 31 31 30 30 31 34 35 38 40 40 48 58 72 72 68 66 72 69 65 59 57 60 62 60 61 65 71 75 77 82 75 72 70 68 64 64 68 66
30 33 22 34 28 35 25 18 30 33 36 33 30 28 30 33 35 36 37 43 44 46 51 69 74 72 69 74 79 76 73 72 72 69 67 68 80 81 89 89 87 83 76 71 68 66 66 66 65
40 44 61 49 80 62 31 25 19 31 36 33 30 28 29 31 36 38 40 45 48 49 51 65 75 71 78 85 88 87 81 81 79 75 76 82 85 91 90 85 82 80 77 69 66 66 65 60 57
30 56 94 91 87 95 75 43 45 51 52 46 31 28 25 31 34 38 41 47 50 53 62 73 74 88 93 93 92 90 88 85 81 80 84 84 88 87 82 81 81 79 78 71 68 64 60 56 54
24 38 48 94 89 75 90 69 60 56 55 40 40 28 24 30 34 38 41 46 52 59 68 75 83 89 93 95 94 93 90 87 87 87 88 91 92 91 91 90 90 86 77 69 59 47 52 51 50

GFSSGP_925_rhum_195.txt.gz
RH
8 8 16 18 30 32 31 21 13 20 25 23 23 26 52 53 60 76 69 58 53 51 62 56 50 49 49 49 49 50 49 51 48 57 60 62 63 66 67 69 72 72 76 79 82 85 78 70 66
9 11 17 21 31 39 29 17 14 22 20 19 24 25 29 68 56 63 72 67 52 52 65 60 59 56 55 54 52 52 53 56 54 55 62 64 65 71 76 82 85 88 83 86 89 90 74 69 66
12 14 20 25 32 31 32 15 12 15 15 18 26 26 43 61 55 58 66 68 57 58 60 58 64 64 60 59 57 58 60 61 60 62 65 68 70 71 75 77 77 81 86 90 90 82 74 72 70
17 19 18 19 21 16 17 13 10 10 10 16 16 53 51 49 54 58 68 70 62 69 62 64 68 68 66 64 64 66 70 74 73 77 78 85 85 81 77 76 77 81 82 84 88 88 80 75 74
19 21 21 20 19 14 10 8 8 9 8 8 16 46 62 61 60 59 66 69 72 76 75 67 70 72 72 71 71 76 80 80 79 79 78 84 89 87 82 79 79 79 81 82 83 84 80 78 77
26 22 25 25 18 12 9 9 9 9 8 8 8 48 72 64 66 67 76 79 78 77 76 68 75 79 79 77 79 81 83 86 88 86 85 98 94 90 86 84 84 85 85 85 83 80 79 78 76
26 28 28 23 17 14 10 9 11 9 9 16 18 54 75 74 75 77 91 90 89 85 82 83 83 89 84 88 87 87 90 92 92 90 90 90 91 87 82 78 74 71 68 69 71 72 71 73 74
23 26 28 23 20 17 10 9 8 9 9 14 15 55 85 80 82 80 92 93 90 90 88 90 89 87 88 91 92 92 91 84 87 91 90 84 80 75 71 68 64 60 56 53 51 54 58 56 47
20 29 30 24 20 15 13 11 8 7 9 9 19 58 68 80 83 88 97 100 100 97 93 89 89 89 94 97 96 93 86 82 83 81 77 77 73 66 59 57 54 49 42 37 34 31 28 28 34
21 30 27 18 16 15 15 15 14 10 10 11 56 75 75 80 88 96 98 99 100 100 98 89 86 90 99 95 89 83 83 80 78 76 73 66 60 61 56 54 34 32 26 23 23 26 37 42 42
21 25 21 18 16 18 15 15 14 14 13 11 50 82 81 82 83 91 94 96 97 95 93 92 90 90 93 90 85 83 80 78 76 71 59 67 69 69 49 34 24 25 38 38 39 42 45 43 44
24 19 17 17 16 16 16 15 16 16 16 14 55 69 75 82 81 77 91 91 94 93 89 99 93 91 90 86 83 79 78 75 70 64 48 68 61 64 53 45 43 39 44 38 42 39 36 36 39
25 22 18 17 16 16 15 16 17 16 16 14 14 61 69 74 77 76 77 83 86 90 83 97 92 88 85 83 79 77 73 66 58 53 46 64 57 52 48 51 38 43 37 36 36 34 38 35 40
20 19 21 20 20 20 19 19 16 16 14 13 14 16 55 66 70 75 77 81 86 85 86 91 86 85 80 79 73 72 61 54 57 55 54 59 48 47 46 44 37 34 34 35 34 32 38 40 45
20 24 25 23 22 22 19 23 21 16 14 15 14 13 14 28 60 70 73 76 79 81 84 82 85 84 76 75 65 63 50 51 52 55 56 52 57 48 42 38 34 32 32 34 34 37 37 44 50
26 25 32 22 22 20 21 26 18 16 16 16 15 13 15 15 14 44 66 65 74 78 83 80 81 80 75 69 58 53 46 48 52 55 54 55 53 48 43 37 34 32 32 33 36 37 38 42 48
31 38 32 26 19 21 21 22 18 15 15 16 15 15 16 16 16 13 42 60 65 72 78 79 76 77 74 68 50 46 46 51 54 56 56 56 50 46 40 36 35 34 39 40 39 40 36 42 48
36 34 27 27 21 17 19 22 20 16 17 18 17 17 18 18 17 13 11 19 56 64 70 77 74 77 72 67 52 47 46 53 54 55 56 56 51 44 40 37 36 39 40 39 37 39 38 40 46
27 26 27 23 19 21 24 24 20 16 18 18 20 20 19 18 16 14 12 11 22 57 72 74 72 79 72 66 55 50 55 52 56 55 55 54 51 44 45 40 39 42 40 41 44 38 38 42 47
26 28 28 23 20 21 24 22 21 19 18 18 18 20 21 19 18 18 18 17 16 40 72 71 70 78 70 67 58 57 52 53 54 55 56 55 51 47 46 42 42 46 46 46 48 43 40 42 46
24 27 29 28 23 21 24 23 20 17 17 15 15 14 15 17 22 30 31 32 29 58 69 70 69 75 69 65 61 56 52 55 57 56 58 55 52 49 48 44 49 50 48 49 49 46 41 42 48
27 22 23 24 29 38 21 36 24 20 19 17 16 17 24 36 36 38 40 41 36 61 69 68 69 72 68 64 60 57 56 59 67 67 61 57 54 51 50 49 52 50 52 53 54 51 47 43 46
23 23 22 23 29 32 27 36 26 20 22 18 16 15 41 46 44 42 42 40 53 63 68 67 69 70 68 64 61 57 57 56 63 64 61 58 56 55 52 52 55 58 59 56 54 51 47 46 43
19 23 26 25 29 42 24 35 25 20 22 26 31 37 42 45 43 42 43 50 79 78 73 72 72 72 70 67 61 57 56 61 69 67 63 62 58 60 61 60 60 60 57 55 54 52 47 48 47
24 31 54 49 51 43 22 32 24 30 34 33 39 42 43 47 48 52 56 57 69 83 85 77 72 72 72 68 66 63 54 58 67 69 68 62 62 65 69 68 69 68 65 62 58 53 52 48 47
38 37 63 69 63 63 38 49 29 55 57 59 47 46 44 46 52 57 58 58 51 71 80 82 83 82 79 75 69 57 52 59 69 69 68 67 65 70 76 72 69 67 65 64 63 61 59 53 53
46 59 39 54 60 76 52 38 26 52 65 63 68 71 73 75 54 53 55 53 65 84 83 78 78 78 75 73 71 69 62 64 70 72 70 70 70 77 80 74 69 66 67 67 64 65 63 59 58
35 30 65 70 91 73 44 36 36 85 80 73 76 80 79 77 72 71 59 57 75 80 86 83 85 92 90 81 77 78 77 71 71 71 72 75 80 78 80 76 69 65 63 64 63 71 73 71 72
43 57 65 76 91 95 78 62 62 88 83 85 79 72 81 83 78 82 82 66 73 76 85 90 89 90 92 92 95 91 89 80 80 78 81 81 81 82 85 82 76 79 86 87 84 82 80 74 61
30 34 36 76 62 85 81 69 37 61 76 73 69 61 78 76 75 82 84 64 70 75 83 92 93 94 98 97 97 96 94 91 87 88 89 88 88 91 80 80 92 95 90 81 76 73 65 60 62

GFSSGP_925_rhum_198.txt.gz
RH
14 11 17 19 31 38 38 27 17 16 25 23 25 34 51 63 56 62 74 65 52 47 47 46 45 48 47 43 44 44 41 41 42 44 51 56 56 55 58 60 62 66 69 72 76 73 68 65 61
14 15 19 27 35 41 36 24 20 18 22 24 34 50 60 72 64 80 78 72 45 43 47 50 49 49 50 49 48 46 45 46 49 50 53 61 68 70 72 85 82 84 82 88 91 86 66 63 62
18 14 22 28 40 40 34 22 19 14 19 21 31 44 55 66 67 72 66 74 65 54 53 53 52 51 51 52 51 50 50 52 55 55 57 62 69 74 76 81 80 84 84 85 90 77 69 65 63
18 21 23 22 24 21 21 16 15 12 13 17 40 66 61 62 61 68 67 61 57 62 59 58 57 55 54 55 55 55 55 57 58 59 62 69 72 73 74 74 76 82 85 87 90 86 79 75 69
20 25 25 24 24 19 14 13 12 11 9 12 27 65 75 68 70 68 68 62 58 64 66 72 67 62 61 61 60 60 62 66 70 73 78 80 83 81 76 74 75 78 82 88 88 85 81 77 76
33 27 30 32 25 18 16 13 12 11 9 13 49 74 84 75 83 78 75 73 61 61 69 75 75 70 67 66 66 70 75 78 80 79 80 82 87 85 81 79 80 82 83 84 84 84 82 77 73
35 38 38 30 28 25 18 13 11 10 10 20 44 89 83 87 95 83 76 77 78 77 71 78 80 76 74 73 75 79 81 83 84 82 83 84 87 85 81 77 77 76 74 72 72 72 73 75 74
31 34 32 33 30 29 16 13 10 10 10 15 57 89 92 88 93 86 85 82 84 86 76 78 80 81 79 80 83 83 85 90 90 88 86 84 85 84 77 72 70 67 65 63 61 59 60 60 48
24 38 43 35 28 24 16 15 13 11 10 17 73 67 66 91 99 98 99 98 92 91 89 87 88 86 87 85 87 89 91 92 91 93 90 88 83 77 72 69 65 59 52 44 39 37 36 32 35
28 39 33 27 23 21 17 16 15 14 14 36 89 85 90 98 100 98 98 98 100 100 98 92 91 91 85 89 91 94 96 91 86 93 89 81 75 72 66 58 52 47 34 28 26 26 29 30 41
23 30 23 21 20 20 19 17 15 15 18 14 71 91 90 94 96 98 99 95 97 100 96 94 91 86 86 92 95 98 98 86 85 83 79 77 71 64 57 53 39 32 24 24 28 36 44 44 43
26 24 22 22 19 20 20 15 16 18 17 31 72 82 86 91 95 96 98 100 100 98 94 93 90 87 85 95 97 94 90 84 81 79 77 67 60 59 45 49 25 26 37 38 40 44 43 44 43
25 24 23 22 23 22 20 21 18 18 17 16 64 79 86 87 88 90 90 94 92 97 93 90 90 87 83 88 86 86 84 80 76 76 72 65 64 62 60 37 35 40 43 40 41 39 37 41 43
22 23 23 22 24 25 23 24 19 18 16 16 46 83 85 85 83 82 92 94 94 91 88 87 91 85 82 83 84 83 80 76 75 70 66 66 61 59 58 48 46 44 42 38 36 34 35 42 48
23 26 26 22 24 25 21 25 25 21 18 18 17 31 72 76 77 80 80 88 91 86 81 85 86 87 88 84 82 81 79 77 74 64 58 58 64 58 53 51 48 43 39 36 34 36 41 49 56
28 29 33 24 22 22 23 32 22 18 21 20 19 16 18 59 71 76 75 80 87 87 89 87 96 96 92 86 80 78 75 75 69 57 52 54 60 50 50 48 38 37 36 35 35 38 43 51 58
36 42 35 29 23 25 25 30 23 19 20 20 20 19 19 19 53 68 72 76 80 85 87 90 95 98 94 87 80 75 69 65 58 55 56 57 57 54 50 42 36 34 33 32 36 40 43 54 60
46 41 34 33 26 21 26 27 22 19 20 21 21 20 19 18 18 40 60 70 73 80 82 86 90 95 94 87 80 72 67 57 53 54 55 58 55 57 49 44 37 34 33 36 40 40 43 51 59
34 36 38 30 24 28 27 29 26 22 20 22 20 21 21 21 17 15 22 56 68 77 83 87 88 92 93 83 76 69 63 53 51 51 57 58 56 52 47 40 36 34 38 42 42 41 44 56 58
36 38 37 31 26 25 28 25 22 20 20 19 19 21 22 21 20 19 20 20 56 68 80 84 86 90 90 81 72 63 62 66 55 59 60 58 57 51 45 40 38 38 42 41 40 41 50 56 55
34 36 33 32 25 24 26 24 22 18 18 18 18 20 25 32 35 43 43 40 43 46 72 79 83 86 86 78 70 60 61 66 66 64 61 60 58 52 47 46 40 42 43 44 42 40 43 57 58
36 23 22 23 28 36 25 36 24 21 22 20 21 25 52 50 46 48 54 68 82 85 58 76 81 85 82 76 69 64 63 68 68 64 60 58 55 51 47 47 44 43 46 46 48 44 40 50 52
29 24 23 23 26 30 33 37 29 21 22 33 41 43 53 54 53 55 54 55 77 94 83 77 79 85 80 75 70 67 64 65 66 69 62 58 55 52 48 50 48 52 55 53 51 49 45 41 49
22 24 29 30 32 37 32 34 24 43 65 58 64 67 60 56 58 57 53 53 60 82 90 84 78 82 80 77 71 66 64 69 74 71 63 58 56 54 53 55 54 56 58 57 55 53 50 47 42
24 37 54 54 51 47 37 38 29 71 73 76 77 76 76 76 68 64 62 66 74 84 92 95 89 87 82 75 69 69 68 66 64 65 67 62 60 61 59 57 58 61 61 59 56 51 51 50 46
39 39 62 64 62 63 45 54 46 66 60 65 72 72 72 76 76 77 73 76 81 87 83 93 98 98 92 85 78 76 72 70 72 70 69 66 65 62 63 64 64 63 61 58 56 52 52 51 49
46 60 41 63 69 80 62 45 66 56 66 67 71 75 79 74 71 68 71 73 80 81 86 87 97 98 98 97 94 90 91 79 75 73 70 69 69 68 71 69 69 67 64 62 60 55 54 50 49
35 30 54 76 87 88 59 51 44 70 69 71 68 76 76 74 66 63 69 72 70 75 74 78 86 98 98 100 95 88 80 80 75 74 74 74 77 76 75 72 70 70 68 62 63 64 58 53 55
47 55 61 69 85 94 77 54 74 74 70 62 71 65 75 77 76 76 79 75 72 72 70 75 84 95 97 100 98 94 94 85 82 80 83 82 81 78 76 79 81 79 77 78 73 75 78 76 83
34 45 49 80 67 88 91 64 41 50 68 70 72 66 70 77 77 79 84 78 84 76 69 75 83 90 99 100 99 100 100 99 91 84 85 82 85 90 89 91 89 84 82 84 92 95 97 94 90